User: anonymous   Login
Location: Dos Palmas
(32.4468°N, 116.8732°W)
Time: 23:10:22
(UTC+00:00)
Language:

FALCON 9 DEB - Orbit

View from above orbital plane
View from above orbital plane
View from above satellite
View from above satellite

Ground track
Ground track

The orbit data is extracted from the following two-line orbital elements,

1 46084U 20055BK  21269.16273941  .00032927  00000-0  29471-3 0  9996
2 46084  53.0121  63.2602 0010091 219.5971 140.4308 15.68007274 69443
Epoch (UTC): 26 September 2021 03:54:20
Eccentricity: 0.0010091
inclination: 53.0121°
perigee height: 358 km
apogee height: 371 km
right ascension of ascending node: 63.2602°
argument of perigee: 219.5971°
revolutions per day: 15.68007274
mean anomaly at epoch: 140.4308°
orbit number at epoch: 6944

The dashed part of the orbit path shows where the satellite is in the earth's shadow,  

DLR